Regional Weather Roundup
Issued by NWS

Home | Current Version | Previous Version | Graphics & Text | Print | Product List | Glossary On
Versions: 1 2 3 4 5 6 7 8 9 10 11 12 13 14 15 16 17 18 19 20 21 22 23 24 25 26 27 28 29 30 31 32 33 34 35 36 37 38 39 40 41 42 43 44 45 46 47 48 49 50
000
ASUS44 KMEG 302000
RWRTN
TENNESSEE HOURLY STATE WEATHER ROUNDUP
NATIONAL WEATHER SERVICE MEMPHIS TN
200 PM CST FRI JAN 30 2015

TNZ002-004-019-021-049-052-054-088>092-302100-
WEST TENNESSEE

CITY           SKY/WX    TMP DP  RH WIND       PRES   REMARKS
MEMPHIS INTL   MOSUNNY   50  23  34 NE7       30.44F
NWS MEMPHIS      N/A     49 N/A N/A MISG        N/A
JACKSON        SUNNY     47  23  38 N5        30.43F
DYERSBURG      SUNNY     45  18  33 NE6       30.46F
UNION CITY     SUNNY     41  25  52 NE9       30.45F
PARIS          SUNNY     41  19  42 CALM      30.44F
LEXINGTON      SUNNY     45  18  33 NE8       30.41F
SAVANNAH       SUNNY     46  21  36 VRB6      30.42F
$$

TNZ008-025-027-028-033-062-065-066-302100-
NORTH MIDDLE TENNESSEE

CITY           SKY/WX    TMP DP  RH WIND       PRES   REMARKS
NASHVILLE      MOSUNNY   45  19  35 NW9       30.42F
CLARKSVILLE    SUNNY     43  21  41 N6        30.44F
COOKEVILLE     MOSUNNY   43  25  49 N8        30.37S
CROSSVILLE     MOSUNNY   39  19  44 N12G17    30.34S WCI  32
$$

TNZ061-075-076-078-094-096-097-302100-
SOUTH MIDDLE TENNESSEE

CITY           SKY/WX    TMP DP  RH WIND       PRES   REMARKS
FAYETTEVILLE   SUNNY     43  19  39 MISG      30.37F
TULLAHOMA      SUNNY     43  19  39 VRB6      30.38S
WINCHESTER     SUNNY     43  19  39 N12       30.37F
MCMINNVILLE    SUNNY     41  21  45 N9        30.37F
COLUMBIA       SUNNY     45  21  39 N10       30.39F
SHELBYVILLE    SUNNY     43  23  45 N10       30.41S
$$

TNZ017-018-042-046-047-302100-
NORTHEAST TENNESSEE

CITY           SKY/WX    TMP DP  RH WIND       PRES   REMARKS
TRI CITIES     PTSUNNY   39  18  42 W17       30.29R WCI  30
ELIZABETHTON   MOCLDY    37  18  44 W17       30.26F WCI  28
$$

TNZ012-013-036-069-073-074-302100-
CENTRAL EAST TENNESSEE

CITY           SKY/WX    TMP DP  RH WIND       PRES   REMARKS
KNOXVILLE      MOSUNNY   42  21  43 NE10G17   30.34F
OAK RIDGE      MOSUNNY   44  19  36 NW7       30.36F
GATLINBURG     MOCLDY    37  19  48 N5        30.34S WCI  34
$$

TNZ083-085-099-302100-
SOUTHEAST TENNESSEE

CITY           SKY/WX    TMP DP  RH WIND       PRES   REMARKS
CHATTANOOGA    SUNNY     48  19  31 N13G20    30.34F
$$

SKY/WX REPORTED AS FAIR MEANS FEW OR NO CLOUDS BELOW
12 THOUSAND FEET.



USA.gov is the U.S. government's official web portal to all federal, state and local government web resources and services.